Wind_Speed
60 60 60 62 62 64 66 68 69 73 73 75 77 80 83 86 88 90 91 92 93 96 100 101 104 108 110 114 118 121 122 120 121 116 113 108 104 95 90 95 96 93 83
65 64 65 66 68 69 70 72 75 75 78 79 84 86 87 90 93 92 95 96 99 102 104 105 108 113 116 120 122 124 124 123 118 112 108 104 99 96 90 85 83 79 82
70 70 70 71 73 74 75 77 79 81 83 86 87 90 92 94 96 98 100 103 104 106 108 110 113 117 123 125 127 125 126 124 117 109 103 99 94 91 87 81 79 75 79
76 76 76 75 77 78 80 82 85 86 88 88 91 94 96 97 99 101 104 107 109 111 114 116 120 124 126 127 128 128 124 115 112 108 97 89 87 85 83 80 78 76 77
79 80 81 80 83 85 87 88 90 89 92 94 97 97 99 100 102 105 108 111 112 116 118 121 125 126 127 127 127 123 116 112 103 92 86 80 78 76 72 69 71 73 74
86 86 86 87 89 89 91 91 92 93 95 98 99 101 102 104 106 109 112 113 116 119 123 126 128 128 126 124 121 114 108 101 92 86 73 68 66 64 66 67 67 73 72
91 91 91 92 93 93 95 96 98 100 101 103 103 105 106 108 111 113 116 118 120 124 126 127 128 128 125 122 116 106 100 90 80 71 65 62 62 61 63 69 70 72 75
96 96 97 97 99 100 102 102 102 104 105 106 108 109 110 113 115 116 119 122 122 128 130 128 131 128 124 117 104 102 95 92 80 72 70 63 63 67 65 66 73 77 80
100 101 102 103 104 103 104 105 106 107 108 110 112 115 115 117 122 121 123 126 128 129 128 126 125 124 118 110 104 97 95 91 85 81 78 74 73 73 72 70 74 76 80
104 104 105 106 106 106 106 109 110 112 113 115 115 117 121 122 122 124 129 129 128 125 126 123 117 108 104 96 94 90 91 92 95 92 93 86 81 82 79 78 76 77 78
108 109 110 109 109 111 112 113 115 116 117 115 120 123 124 125 127 128 130 128 123 120 116 112 104 99 96 92 90 92 92 97 93 89 90 86 86 85 81 82 83 83 80
113 114 115 113 118 117 116 116 117 118 120 121 123 124 126 128 129 129 123 119 113 109 107 102 98 93 90 90 93 94 91 95 94 87 82 83 85 81 86 86 82 78 80
114 117 118 119 120 121 120 121 119 123 125 125 125 128 128 128 125 120 121 113 104 99 98 93 89 88 86 91 96 98 95 96 96 92 93 90 93 93 97 96 88 94 104
119 119 120 122 123 123 121 125 125 125 124 125 126 124 124 126 123 119 115 97 92 90 85 83 89 89 91 95 98 99 98 100 100 99 96 98 95 90 92 95 99 97 97
120 124 123 123 122 122 124 125 122 120 124 125 124 126 120 117 110 105 97 84 79 81 83 86 90 93 94 91 88 95 94 92 93 94 96 97 98 98 95 96 98 102 103
123 125 125 126 121 121 120 118 121 121 123 115 116 114 114 108 103 91 77 74 76 78 81 83 83 86 89 90 93 93 96 97 101 101 99 97 98 97 101 102 103 108 108
117 117 114 114 114 114 117 110 106 112 109 111 103 94 95 89 81 73 72 77 73 81 87 88 84 83 84 89 88 94 97 101 105 101 101 103 100 101 105 108 115 116 118
97 100 100 97 97 98 98 98 99 100 99 96 94 86 79 84 84 81 77 79 85 91 93 91 87 86 93 93 92 91 96 102 103 101 105 108 110 109 110 115 121 124 127
89 92 93 92 94 94 89 92 97 99 97 96 94 92 91 92 89 86 87 87 88 91 90 91 94 98 101 99 101 105 106 107 107 108 108 107 109 114 119 125 126 125 127
86 87 88 87 85 87 94 99 100 99 100 100 98 98 94 86 85 88 94 98 100 100 100 104 103 106 104 108 109 107 110 114 112 112 110 114 117 121 122 127 129 126 127
87 85 84 85 91 91 92 93 97 101 102 105 103 98 95 99 101 100 100 101 102 103 102 103 107 113 113 115 114 115 116 116 117 118 119 121 122 122 127 125 121 124 129
93 90 91 92 88 88 86 88 89 91 96 99 103 103 102 99 101 102 105 108 109 110 113 113 119 120 120 123 121 122 120 119 121 124 124 125 126 124 123 121 118 115 117
92 94 94 96 97 99 101 101 103 104 104 97 99 105 103 105 109 111 113 116 118 121 121 122 123 123 127 126 126 124 123 126 126 127 129 129 129 130 125 124 122 116 116
98 97 104 103 104 107 105 110 111 112 113 114 118 114 115 116 117 118 119 120 124 129 128 130 129 133 134 132 128 127 128 129 128 127 126 126 125 121 119 116 113 110 109
105 107 110 109 111 112 115 118 115 119 123 122 123 125 125 121 124 127 128 128 133 133 134 131 135 140 136 133 133 132 133 131 129 126 122 118 116 113 110 107 108 107 104
114 113 113 115 121 123 125 127 125 127 127 125 131 128 131 130 133 134 135 133 133 135 140 139 143 140 137 136 134 132 131 127 121 119 116 115 115 111 107 105 103 100 97
Wind_Direction
262 263 267 270 273 276 279 282 283 286 288 291 293 294 296 297 298 300 302 303 305 307 309 310 311 313 314 314 316 317 316 315 314 313 310 308 306 304 302 302 301 302 300
262 265 268 272 274 276 280 282 284 287 288 289 292 293 294 296 298 300 302 305 307 308 309 311 311 312 313 314 316 316 315 314 314 311 308 307 304 303 300 300 300 301 299
266 268 270 272 275 278 280 282 283 284 286 289 290 292 293 296 298 301 304 305 306 308 308 310 311 312 313 313 315 316 315 313 311 309 308 307 303 301 300 299 302 297 297
267 268 270 273 275 278 279 281 282 284 286 288 289 291 294 297 299 301 303 305 306 307 308 309 310 311 312 313 313 312 313 311 309 309 309 306 303 300 300 300 300 298 298
267 269 271 272 275 276 278 279 282 284 285 288 290 292 294 297 298 301 302 303 305 306 307 307 309 310 311 311 312 312 311 310 307 310 307 304 300 301 301 299 299 301 300
266 268 271 273 273 275 278 280 282 284 286 289 290 292 294 296 298 299 301 303 303 304 306 307 308 309 310 312 311 310 309 305 308 303 306 304 303 303 306 307 303 302 305
267 269 271 272 274 276 278 280 282 284 287 288 289 292 293 294 296 297 299 302 301 302 305 307 306 307 309 309 307 305 305 306 308 308 311 309 313 304 309 307 306 305 303
266 268 270 272 274 276 279 281 282 284 287 288 290 291 292 292 296 298 300 301 302 302 304 305 305 308 307 308 305 308 309 311 311 310 315 313 311 316 307 305 304 302 299
265 268 270 271 274 276 278 280 283 285 287 288 288 290 291 293 295 298 298 301 301 301 303 305 304 305 304 305 310 311 311 313 316 317 318 320 318 318 314 308 303 303 302
267 268 270 272 275 278 278 280 283 285 286 285 286 291 291 294 296 296 297 302 302 301 303 302 303 303 305 307 308 312 313 316 316 316 317 318 318 315 310 307 304 300 299
267 269 270 274 274 276 277 279 281 281 285 286 287 290 292 294 295 297 299 300 301 301 302 302 302 301 303 306 307 309 310 313 313 313 313 311 310 310 307 304 304 303 299
267 271 273 274 276 277 279 280 281 283 284 286 288 290 293 293 295 296 297 299 298 298 300 300 298 302 304 306 307 307 308 310 310 308 306 302 305 302 303 303 300 299 300
269 270 271 273 275 277 278 281 283 283 285 287 289 291 293 293 294 295 296 296 297 296 295 297 299 298 300 300 301 304 304 305 303 302 303 301 301 302 302 300 297 296 302
267 270 271 272 274 276 278 279 282 283 286 286 288 290 291 290 291 293 293 294 293 295 295 295 294 295 296 297 299 299 300 303 303 300 300 301 301 301 300 299 300 298 301
267 270 272 272 275 276 277 280 282 282 284 285 288 290 289 291 291 293 293 294 291 288 290 292 295 295 296 296 294 296 302 300 300 298 300 298 297 296 299 299 298 299 299
265 265 268 270 273 275 277 278 278 281 284 285 288 288 290 290 291 295 294 291 290 293 297 296 293 294 297 297 293 294 297 298 297 296 298 298 298 298 296 298 298 299 300
266 266 268 269 271 273 275 277 277 281 283 284 286 290 292 297 298 295 293 293 287 291 294 295 296 298 302 302 301 298 303 302 299 298 298 298 295 293 293 294 298 297 298
263 264 267 270 269 273 276 279 281 283 286 286 287 288 291 295 296 295 297 288 287 290 289 295 298 299 301 301 300 303 303 304 301 300 301 299 295 294 296 298 297 296 294
266 266 267 272 273 275 278 280 283 286 287 287 289 288 288 291 292 294 297 296 297 295 295 297 296 297 298 301 302 302 302 301 302 302 298 297 298 297 298 299 297 295 294
269 273 273 277 278 277 279 281 282 284 285 286 287 289 291 292 291 292 294 296 296 295 296 297 300 302 300 302 302 301 301 300 299 299 298 300 300 298 298 296 295 295 296
272 271 274 277 278 281 283 284 284 284 284 284 285 287 287 290 292 294 297 295 295 297 299 302 301 300 302 300 299 300 300 299 299 298 298 298 299 297 294 295 296 295 296
270 273 274 275 280 283 283 285 289 291 287 285 283 284 287 289 291 292 294 296 297 297 299 302 303 304 302 300 299 299 299 299 298 298 297 296 294 294 293 292 296 296 296
270 276 279 279 283 287 285 288 290 291 293 292 290 293 293 293 293 292 292 294 295 296 298 299 300 302 301 300 298 296 296 296 295 294 294 295 293 292 293 295 294 295 296
276 277 278 279 284 287 288 290 288 289 292 291 291 292 294 292 293 294 295 294 294 298 296 297 299 301 301 299 297 296 296 295 295 295 295 295 294 293 293 296 295 297 298
278 279 279 281 283 284 286 288 286 287 288 289 291 291 294 296 295 293 295 295 294 297 299 297 299 300 299 296 296 296 296 296 296 295 296 295 295 296 296 296 298 298 299
279 278 278 278 281 281 284 287 284 287 291 291 292 292 293 296 296 296 294 294 295 296 299 299 299 297 298 298 297 295 296 297 297 297 298 298 298 299 299 298 299 298 296
Height
10737 10738 10738 10737 10736 10735 10732 10730 10727 10724 10720 10718 10715 10711 10706 10701 10697 10694 10689 10683 10677 10668 10658 10652 10641 10630 10622 10608 10598 10586 10576 10561 10547 10538 10524 10511 10500 10491 10476 10467 10453 10443 10430
10723 10725 10724 10723 10721 10720 10718 10715 10712 10710 10706 10703 10699 10695 10689 10684 10679 10675 10670 10664 10656 10648 10638 10631 10623 10611 10600 10588 10577 10564 10550 10537 10525 10514 10500 10489 10476 10466 10460 10450 10435 10424 10414
10709 10709 10708 10708 10708 10707 10704 10701 10698 10694 10690 10687 10683 10678 10672 10666 10661 10655 10649 10641 10633 10625 10617 10608 10599 10589 10578 10565 10552 10538 10524 10511 10499 10489 10479 10466 10454 10443 10437 10428 10415 10407 10400
10693 10694 10694 10694 10693 10691 10687 10685 10681 10678 10675 10670 10665 10660 10655 10649 10643 10637 10629 10621 10613 10604 10594 10585 10576 10566 10554 10543 10528 10513 10500 10487 10473 10462 10454 10444 10434 10425 10416 10408 10400 10392 10384
10676 10678 10677 10677 10675 10673 10671 10667 10664 10661 10657 10653 10647 10641 10636 10632 10626 10618 10611 10602 10593 10583 10574 10564 10554 10543 10531 10517 10506 10492 10477 10467 10454 10442 10433 10423 10413 10406 10397 10390 10383 10375 10367
10659 10659 10660 10659 10656 10654 10652 10649 10646 10643 10638 10633 10627 10622 10618 10613 10607 10599 10590 10582 10573 10563 10552 10540 10529 10520 10510 10496 10482 10468 10457 10445 10436 10425 10416 10406 10397 10390 10384 10377 10368 10359 10353
10641 10640 10640 10637 10637 10635 10632 10630 10628 10623 10620 10614 10609 10604 10598 10593 10585 10578 10570 10561 10551 10542 10531 10519 10504 10496 10486 10476 10467 10456 10441 10430 10419 10406 10397 10389 10383 10375 10370 10361 10354 10347 10338
10620 10619 10618 10618 10616 10614 10613 10611 10607 10603 10599 10594 10589 10582 10576 10569 10563 10556 10547 10537 10527 10516 10507 10496 10480 10472 10459 10447 10435 10427 10416 10409 10404 10394 10383 10375 10368 10361 10353 10347 10339 10333 10324
10600 10600 10600 10598 10598 10597 10593 10590 10587 10582 10578 10574 10566 10559 10553 10548 10541 10533 10524 10516 10504 10491 10481 10471 10456 10444 10434 10428 10414 10401 10394 10387 10380 10372 10364 10357 10351 10344 10336 10329 10321 10313 10305
10579 10578 10577 10576 10576 10574 10571 10567 10564 10559 10555 10550 10544 10536 10528 10524 10518 10509 10498 10488 10478 10468 10456 10442 10430 10419 10411 10401 10391 10386 10376 10365 10359 10352 10345 10336 10328 10322 10316 10309 10300 10293 10285
10557 10556 10553 10555 10552 10549 10548 10544 10538 10533 10529 10524 10519 10513 10503 10497 10490 10483 10472 10461 10450 10439 10425 10417 10410 10400 10392 10384 10375 10370 10362 10351 10344 10336 10327 10318 10311 10304 10295 10287 10280 10272 10265
10533 10536 10534 10533 10528 10526 10524 10519 10513 10509 10502 10499 10493 10487 10479 10471 10464 10458 10450 10436 10424 10415 10407 10400 10391 10383 10375 10367 10358 10350 10343 10334 10326 10318 10312 10304 10296 10289 10279 10270 10261 10252 10244
10513 10510 10508 10506 10504 10502 10496 10495 10489 10481 10478 10475 10468 10461 10454 10446 10439 10433 10428 10416 10402 10394 10389 10381 10374 10366 10360 10351 10342 10334 10326 10317 10308 10300 10292 10284 10276 10269 10261 10252 10243 10234 10228
10486 10484 10484 10481 10479 10477 10474 10467 10464 10459 10454 10446 10441 10435 10428 10420 10413 10407 10402 10392 10383 10376 10369 10363 10355 10347 10340 10332 10323 10314 10306 10297 10288 10280 10272 10262 10253 10244 10235 10227 10220 10207 10200
10461 10461 10459 10456 10455 10451 10445 10442 10437 10432 10428 10422 10414 10407 10401 10395 10388 10382 10377 10369 10361 10354 10348 10342 10335 10327 10320 10310 10300 10292 10285 10276 10268 10258 10250 10240 10230 10221 10211 10200 10193 10183 10173
10435 10433 10428 10429 10428 10422 10419 10415 10410 10406 10403 10398 10390 10380 10376 10370 10365 10359 10353 10346 10341 10334 10327 10321 10314 10306 10299 10290 10281 10271 10262 10253 10245 10236 10227 10217 10206 10195 10184 10173 10161 10151 10143
10406 10406 10402 10400 10398 10395 10392 10389 10383 10379 10377 10373 10367 10358 10351 10345 10341 10337 10332 10326 10319 10314 10307 10300 10292 10285 10277 10268 10259 10251 10240 10229 10221 10211 10201 10192 10181 10169 10159 10147 10134 10120 10110
10377 10376 10376 10374 10371 10368 10365 10361 10357 10352 10346 10345 10341 10337 10332 10328 10322 10316 10311 10304 10300 10293 10286 10279 10271 10263 10255 10246 10236 10225 10215 10204 10194 10183 10172 10161 10150 10140 10128 10116 10104 10091 10079
10351 10349 10349 10348 10346 10343 10339 10337 10332 10327 10323 10318 10314 10312 10310 10305 10299 10292 10287 10281 10275 10269 10262 10254 10247 10238 10229 10220 10209 10199 10189 10179 10167 10155 10143 10130 10118 10105 10093 10078 10066 10051 10038
10327 10325 10324 10322 10319 10317 10314 10311 10306 10303 10299 10294 10290 10287 10284 10278 10274 10268 10262 10256 10249 10242 10234 10226 10217 10210 10200 10191 10181 10171 10161 10149 10138 10127 10113 10100 10086 10072 10059 10044 10029 10017 10003
10301 10300 10299 10296 10294 10290 10288 10285 10281 10277 10273 10269 10266 10262 10258 10254 10247 10241 10235 10229 10221 10214 10207 10197 10188 10180 10169 10160 10151 10140 10129 10116 10105 10094 10082 10068 10052 10037 10020 10009 9996 9981 9969
10277 10276 10274 10272 10269 10265 10262 10259 10254 10249 10246 10242 10239 10236 10230 10223 10218 10212 10205 10198 10191 10184 10176 10164 10155 10145 10135 10126 10115 10103 10092 10080 10067 10056 10043 10027 10011 9997 9984 9973 9961 9945 9933
10249 10249 10246 10243 10239 10236 10232 10229 10225 10221 10217 10212 10209 10205 10199 10193 10187 10181 10174 10166 10158 10150 10142 10132 10123 10111 10102 10090 10080 10069 10057 10044 10030 10017 10003 9989 9973 9959 9948 9937 9925 9913 9902
10220 10217 10215 10211 10207 10204 10201 10197 10194 10189 10185 10180 10177 10171 10166 10159 10153 10146 10138 10130 10123 10114 10103 10096 10086 10076 10064 10052 10040 10029 10016 10004 9990 9977 9962 9949 9938 9924 9915 9903 9890 9880 9869
10188 10184 10181 10179 10175 10171 10168 10165 10160 10156 10151 10146 10141 10135 10128 10121 10116 10110 10102 10092 10084 10073 10064 10054 10045 10035 10023 10011 9998 9986 9973 9960 9950 9938 9925 9912 9902 9890 9881 9870 9859 9847 9836
10154 10151 10148 10144 10141 10137 10133 10130 10125 10120 10115 10108 10102 10095 10089 10082 10076 10070 10062 10052 10043 10033 10024 10013 10004 9992 9982 9968 9956 9945 9933 9921 9910 9900 9889 9877 9868 9856 9846 9837 9826 9814 9804